| time (UTC) | temp C | wind direction | speed KPH | gust KPH | rain 1hr cm | rain 24hr cm | rain mn cm | humidity % | barometer mb |
| 20260505051543 | 7 | 209 | 6.4 | 17.7 | 0.00 | 1.27 | 0.00 | 84 | 1006.4 |
| 20260505041532 | 8 | 239 | 6.4 | 22.5 | 0.00 | 1.30 | 0.00 | 81 | 1005.6 |
| 20260505040028 | 8 | 280 | 4.8 | 17.7 | 0.00 | 1.30 | 0.00 | 80 | 1005.5 |
| 20260505034525 | 8 | 261 | 6.4 | 17.7 | 0.00 | 1.30 | 0.00 | 80 | 1005.5 |
| 20260505033027 | 8 | 209 | 4.8 | 19.3 | 0.00 | 1.30 | 0.00 | 79 | 1005.1 |
| 20260505031520 | 9 | 225 | 8.0 | 17.7 | 0.00 | 1.30 | 0.00 | 78 | 1004.9 |
| 20260505030025 | 9 | 275 | 6.4 | 19.3 | 0.03 | 1.30 | 1.30 | 78 | 1004.7 |
| 20260505024515 | 9 | 207 | 4.8 | 17.7 | 0.03 | 1.30 | 1.30 | 77 | 1004.5 |
| 20260505023016 | 9 | 238 | 9.7 | 24.1 | 0.03 | 1.30 | 1.30 | 77 | 1004.4 |
| 20260505021514 | 9 | 266 | 12.9 | 29.0 | 0.00 | 1.27 | 1.27 | 77 | 1004.0 |
| 20260505020012 | 9 | 178 | 9.7 | 30.6 | 0.00 | 1.27 | 1.27 | 78 | 1003.9 |
| 20260505014512 | 10 | 182 | 11.3 | 30.6 | 0.00 | 1.27 | 1.27 | 73 | 1003.8 |
| 20260505013009 | 10 | 247 | 12.9 | 30.6 | 0.00 | 1.27 | 1.27 | 73 | 1003.7 |
| 20260505011508 | 10 | 220 | 11.3 | 30.6 | 0.00 | 1.27 | 1.27 | 71 | 1003.4 |
| 20260505010006 | 10 | 255 | 8.0 | 29.0 | 0.00 | 1.27 | 1.27 | 71 | 1003.3 |
| 20260505004519 | 10 | 271 | 8.0 | 25.7 | 0.00 | 1.27 | 1.27 | 71 | 1003.3 |
| 20260505003005 | 10 | 242 | 14.5 | 32.2 | 0.00 | 1.27 | 1.27 | 69 | 1003.2 |
| 20260505001503 | 10 | 263 | 9.7 | 20.9 | 0.00 | 1.27 | 1.27 | 69 | 1002.7 |
| 20260505000002 | 10 | 208 | 8.0 | 27.4 | 0.00 | 1.40 | 1.27 | 65 | 1002.5 |
| 20260504234500 | 10 | 216 | 9.7 | 30.6 | 0.00 | 1.40 | 1.27 | 62 | 1002.4 |
| 20260504233100 | 10 | 209 | 16.1 | 29.0 | 0.00 | 1.40 | 1.27 | 59 | 1002.2 |
| 20260504231606 | 10 | 273 | 8.0 | 22.5 | 0.00 | 1.40 | 1.27 | 61 | 1002.0 |
| 20260504230100 | 10 | 235 | 8.0 | 16.1 | 0.00 | 1.45 | 1.27 | 62 | 1001.8 |
| 20260504224605 | 10 | 219 | 9.7 | 17.7 | 0.00 | 1.45 | 1.27 | 59 | 1001.7 |
| 20260504223055 | 11 | 207 | 9.7 | 17.7 | 0.00 | 1.45 | 1.27 | 56 | 1001.7 |
| 20260504221603 | 11 | 212 | 8.0 | 17.7 | 0.00 | 1.45 | 1.27 | 55 | 1001.3 |
| 20260504220054 | 12 | 234 | 4.8 | 22.5 | 0.00 | 1.65 | 1.27 | 55 | 1001.2 |
| 20260504214554 | 12 | 208 | 8.0 | 30.6 | 0.00 | 1.65 | 1.27 | 55 | 1001.1 |
| 20260504213058 | 12 | 271 | 9.7 | 19.3 | 0.00 | 1.65 | 1.27 | 54 | 1000.8 |
| 20260504211547 | 11 | 233 | 8.0 | 24.1 | 0.00 | 1.65 | 1.27 | 56 | 1000.7 |
| 20260504210055 | 12 | 213 | 14.5 | 24.1 | 0.00 | 1.73 | 1.27 | 56 | 1000.6 |
| 20260504204622 | 12 | 230 | 12.9 | 27.4 | 0.00 | 1.73 | 1.27 | 57 | 1000.3 |
| 20260504203043 | 11 | 226 | 16.1 | 41.8 | 0.00 | 1.73 | 1.27 | 59 | 1000.2 |
| 20260504201542 | 11 | 256 | 14.5 | 33.8 | 0.00 | 1.73 | 1.27 | 63 | 1000.1 |
| 20260504200042 | 11 | 284 | 11.3 | 45.1 | 0.00 | 1.83 | 1.27 | 65 | 999.9 |
| 20260504194545 | 11 | 237 | 11.3 | 32.2 | 0.00 | 1.83 | 1.27 | 68 | 999.8 |
| 20260504193033 | 10 | 284 | 12.9 | 33.8 | 0.00 | 1.83 | 1.27 | 72 | 999.4 |
| 20260504191530 | 10 | 228 | 14.5 | 29.0 | 0.00 | 1.83 | 1.27 | 75 | 999.5 |
| 20260504190033 | 9 | 190 | 19.3 | 38.6 | 0.00 | 1.85 | 1.27 | 75 | 999.1 |
| 20260504184525 | 8 | 227 | 14.5 | 30.6 | 0.00 | 1.85 | 1.27 | 77 | 999.0 |
| 20260504183020 | 8 | 234 | 16.1 | 30.6 | 0.00 | 1.85 | 1.27 | 81 | 998.8 |
| 20260504181517 | 8 | 288 | 12.9 | 30.6 | 0.00 | 1.85 | 1.27 | 84 | 998.9 |
| 20260504180014 | 7 | 233 | 8.0 | 35.4 | 0.00 | 1.85 | 1.27 | 85 | 998.4 |
| 20260504174510 | 7 | 199 | 11.3 | 30.6 | 0.00 | 1.85 | 1.27 | 87 | 998.3 |
| 20260504173008 | 6 | 227 | 9.7 | 27.4 | 0.00 | 1.85 | 1.27 | 88 | 998.3 |
| 20260504171522 | 6 | 269 | 12.9 | 25.7 | 0.00 | 1.85 | 1.27 | 89 | 998.0 |
| 20260504081545 | 2 | 255 | 6.4 | 25.7 | 0.13 | 1.12 | 0.53 | 96 | 978.0 |